Weather History for Cut Bank, MT

Change the Weather History Date:

Monday, December 24, 2012

  Actual Average Record
Temperature  
Mean Temperature -9 °F 21 °F  
Max Temperature -2 °F 32 °F 56 °F (1950)
Min Temperature -17 °F 11 °F -40 °F (1983)
Degree Days  
Heating Degree Days 74 44  
Month to date heating degree days 1001 1022  
Since 1 July heating degree days 3141 3285  
Cooling Degree Days 0 0  
Month to date cooling degree days 0 0  
Year to date cooling degree days 210 162  
Moisture  
Dew Point -10 °F    
Average Humidity 80    
Maximum Humidity 89    
Minimum Humidity 71    
Precipitation  
Precipitation T in 0.01 in 0.20 in (2014)
Month to date precipitation 0.18 0.17  
Year to date precipitation 9.03 10.85  
Snow  
Snow 0.00 in - - ()
Snow Depth 0.00 in    
Sea Level Pressure  
Sea Level Pressure 30.24 in    
Wind  
Wind Speed 9 mph (North)    
Max Wind Speed 15 mph    
Max Gust Speed 17 mph    
Visibility 5 miles    
Events Snow    
T = Trace of Precipitation, MM = Missing Value Source: NWS Daily Summary

Daily Weather History Graph

Daily Weather History Graph

Search for Another Location

Airport:

Trip Planner

Search our weather history database for the weather conditions in past years. The results will help you decide how hot, cold, wet, or windy it might be!

Date:

Astronomy

Dec. 24, 2012 Rise Set
Actual Time 8:20 AM MST 4:38 PM MST
Civil Twilight 7:43 AM MST 5:15 PM MST
Nautical Twilight 7:03 AM MST 5:55 PM MST
Astronomical Twilight 6:25 AM MST 6:33 PM MST
Moon 2:13 PM MST (12/24) 4:55 AM MST (12/24)
Length of Visible Light 9h 31m
Length of Day
8h 17m
Waxing Gibbous, 89% of the Moon is Illuminated
Dec 24
Waxing Gibbous
Dec 28
Full
Jan 4
Last Quarter
Jan 11
New
Jan 18
First Quarter

Hourly Weather History & Observations

Time (MST) Temp. Windchill Dew Point Humidity Pressure Visibility Wind Dir Wind Speed Gust Speed Precip Events Conditions
12:34 AM -4.0 °F -23.0 °F -7.6 °F 85% 29.95 in 10.0 mi NNW 12.7 mph - N/A   Overcast
12:56 AM -4.0 °F -23.0 °F -8.0 °F 83% 30.22 in 10.0 mi North 12.7 mph - N/A   Overcast
1:56 AM -4.0 °F -22.1 °F -8.0 °F 83% 30.24 in 10.0 mi North 11.5 mph - N/A   Overcast
2:37 AM -4.0 °F -23.0 °F -7.6 °F 85% 29.98 in 1.8 mi North 12.7 mph - 0.00 in Snow Light Snow
2:56 AM -2.9 °F -20.8 °F -8.0 °F 79% 30.25 in 2.0 mi North 11.5 mph - 0.00 in Snow Light Snow
3:03 AM -4.0 °F -23.0 °F -7.6 °F 85% 29.99 in 5.0 mi North 12.7 mph - 0.00 in Snow Light Snow
3:32 AM -2.2 °F -20.7 °F -7.6 °F 78% 30.00 in 5.0 mi North 12.7 mph - 0.00 in Snow Light Snow
3:56 AM -4.0 °F -23.7 °F -8.0 °F 83% 30.26 in 3.0 mi North 13.8 mph - 0.00 in Snow Light Snow
4:05 AM -4.0 °F -22.1 °F -7.6 °F 85% 30.00 in 2.0 mi North 11.5 mph - 0.00 in Snow Light Snow
4:28 AM -4.0 °F -23.0 °F -7.6 °F 85% 30.00 in 1.8 mi North 12.7 mph - 0.00 in Snow Light Snow
4:37 AM -2.2 °F -20.7 °F -7.6 °F 78% 30.00 in 2.0 mi North 12.7 mph - 0.00 in Snow Light Snow
4:56 AM -4.0 °F -21.2 °F -8.0 °F 83% 30.29 in 3.0 mi North 10.4 mph - 0.00 in Snow Light Snow
5:05 AM -2.2 °F -18.9 °F -7.6 °F 78% 30.01 in 2.5 mi North 10.4 mph - 0.00 in Snow Light Snow
5:21 AM -4.0 °F -22.1 °F -7.6 °F 85% 30.02 in 1.5 mi North 11.5 mph - 0.00 in Snow Light Snow
5:39 AM -2.2 °F -18.9 °F -7.6 °F 78% 30.02 in 2.5 mi North 10.4 mph - 0.00 in Snow Light Snow
5:45 AM -2.2 °F -18.0 °F -7.6 °F 78% 30.03 in 3.0 mi North 9.2 mph - 0.00 in Snow Light Snow
5:56 AM -2.9 °F -19.8 °F -8.0 °F 79% 30.32 in 4.0 mi North 10.4 mph - 0.00 in Snow Light Snow
6:36 AM -4.0 °F -23.7 °F -9.4 °F 78% 30.04 in 2.5 mi North 13.8 mph - 0.00 in Snow Light Snow
6:56 AM -4.0 °F -24.5 °F -9.0 °F 79% 30.34 in 2.5 mi North 15.0 mph - 0.00 in Snow Light Snow
7:56 AM -4.0 °F -23.0 °F -9.0 °F 79% 30.36 in 2.0 mi North 12.7 mph - 0.00 in Snow Light Snow
8:49 AM -4.0 °F -23.0 °F -9.4 °F 78% 30.09 in 1.8 mi North 12.7 mph - 0.00 in Snow Light Snow
8:56 AM -4.0 °F -21.2 °F -9.0 °F 79% 30.38 in 1.5 mi North 10.4 mph - 0.00 in Snow Light Snow
9:37 AM -4.0 °F -21.2 °F -9.4 °F 78% 30.11 in 2.5 mi North 10.4 mph - 0.00 in Snow Light Snow
9:51 AM -2.2 °F -20.7 °F -9.4 °F 71% 30.12 in 4.0 mi NNW 12.7 mph - 0.00 in Snow Light Snow
9:56 AM -2.9 °F -21.6 °F -9.0 °F 75% 30.41 in 5.0 mi North 12.7 mph - 0.00 in Snow Light Snow
10:04 AM -2.2 °F -18.9 °F -7.6 °F 78% 30.12 in 5.0 mi North 10.4 mph - 0.00 in Snow Light Snow
10:56 AM -2.9 °F -22.4 °F -9.0 °F 75% 30.43 in 4.0 mi North 13.8 mph - 0.00 in Snow Light Snow
11:08 AM -2.2 °F -19.9 °F -9.4 °F 71% 30.15 in 2.5 mi North 11.5 mph - 0.00 in Snow Light Snow
11:18 AM -2.2 °F -20.7 °F -9.4 °F 71% 30.15 in 3.0 mi North 12.7 mph - 0.00 in Snow Light Snow
11:28 AM -2.2 °F -20.7 °F -9.4 °F 71% 30.15 in 1.8 mi North 12.7 mph - 0.00 in Snow Light Snow
11:56 AM -2.9 °F -21.6 °F -9.0 °F 75% 30.44 in 1.2 mi North 12.7 mph - 0.00 in Snow Light Snow
12:34 PM -2.2 °F -20.7 °F -7.6 °F 78% 30.14 in 1.2 mi North 12.7 mph - 0.00 in Snow Light Snow
12:56 PM -2.9 °F -22.4 °F -8.0 °F 79% 30.43 in 1.2 mi North 13.8 mph - 0.00 in Snow Light Snow
1:12 PM -2.2 °F -21.5 °F -9.4 °F 71% 30.15 in 2.5 mi North 13.8 mph - 0.00 in Snow Light Snow
1:17 PM -2.2 °F -20.7 °F -9.4 °F 71% 30.15 in 3.0 mi North 12.7 mph - 0.00 in Snow Light Snow
1:30 PM -2.2 °F -19.9 °F -9.4 °F 71% 30.15 in 2.0 mi North 11.5 mph - 0.00 in Snow Light Snow
1:35 PM -2.2 °F -21.5 °F -9.4 °F 71% 30.15 in 1.8 mi North 13.8 mph - 0.00 in Snow Light Snow
1:56 PM -2.9 °F -21.6 °F -9.0 °F 75% 30.45 in 1.8 mi North 12.7 mph - 0.00 in Snow Light Snow
2:08 PM -2.2 °F -21.5 °F -9.4 °F 71% 30.16 in 2.5 mi North 13.8 mph - 0.00 in Snow Light Snow
2:15 PM -2.2 °F -19.9 °F -9.4 °F 71% 30.16 in 3.0 mi North 11.5 mph - 0.00 in Snow Light Snow
2:27 PM -2.2 °F -19.9 °F -9.4 °F 71% 30.16 in 4.0 mi North 11.5 mph - 0.00 in Snow Light Snow
2:56 PM -4.0 °F -19.0 °F -9.9 °F 76% 30.46 in 10.0 mi North 8.1 mph - 0.00 in   Mostly Cloudy
3:56 PM -6.0 °F -21.5 °F -11.0 °F 79% 30.49 in 10.0 mi North 8.1 mph - N/A   Mostly Cloudy
4:56 PM -9.0 °F -20.4 °F -13.0 °F 83% 30.53 in 7.0 mi NNW 4.6 mph - N/A   Overcast
5:36 PM -11.2 °F -26.4 °F -14.8 °F 84% 30.22 in 10.0 mi NNW 6.9 mph - N/A   Scattered Clouds
5:56 PM -9.9 °F -23.4 °F -14.1 °F 82% 30.54 in 10.0 mi NNW 5.8 mph - N/A   Clear
6:56 PM -11.9 °F -28.7 °F -16.1 °F 82% 30.56 in 10.0 mi NW 8.1 mph - N/A   Clear
7:56 PM -13.0 °F -27.0 °F -16.1 °F 86% 30.57 in 10.0 mi NW 5.8 mph - N/A   Clear
8:56 PM -15.0 °F -29.3 °F -18.9 °F 82% 30.57 in 10.0 mi North 5.8 mph - N/A   Clear
9:56 PM -13.0 °F - -16.1 °F 86% 30.56 in 10.0 mi Calm Calm - N/A   Clear
10:56 PM -16.1 °F - -18.0 °F 91% 30.58 in 10.0 mi Calm Calm - N/A   Clear
11:56 PM -11.9 °F - -15.0 °F 86% 30.55 in 10.0 mi Calm Calm - N/A   Clear